(72) Feronia
ephemeris date magn radius delta ra dec elong phase
Opposition26 Apr 202511.42.251 AU1.245 AU14h21m-12°29'178.2°0.8°
Today9 May 202511.82.234 AU1.242 AU14h09m-10°51'165.5°6.5°
(72) Feronia - 2025-05-09
astro.vanbuitenen.nl


 
-1 year
-1 month
-1 day
Now
+1 day
+1 month
+1 year

The interactive orbit chart above shows the body's path through the solar system and its position at the given date. Green and blue lines are shown perpendicular to the ecliptic plane: Green if the path is above the ecliptic plane, blue if it is below. (Left-click and drag to rotate the view; Right-click and drag to move the view; Use scroll wheel to zoom in our out.)

The orbital elements of Feronia are:

            e (Eccentricity)                : 0.1214213
            a (Semimajor axis)              : 2.2660464
            i (Inclination)                 : 5.41810
            Ω (Longitude of ascending node) : 207.93462
            ω (Argument of perihelion)      : 102.75319
            M (Mean anomaly)                : 282.48196
            Epoch                           : 2025 May 05

            L (Longitude of perihelion)     : 130.74316
            B (Latitude of perihelion)      : 5.28405
            P (Orbital period in years)     : 3.41            
        

The light curve chart below shows the estimated development of the minor planet's magnitude.


The all-sky chart below shows the path of the minor planet over the same period as the light curve. The current position is marked yellow.





The following chart shows the path of the minor planet in the next few days. The field of view is optimized for (~10x50) binoculars and finderscopes. A more printer-friendly version of the same chart can be found below.




Ephemerides:
Date       Time       RA (2000)    DEC (2000)    delta   radius  elong  phase   PA    magn
2025-05-09 00:00 UT   14 09 47.1   -10 51 36     1.242    2.234  165.5    6.5   118   11.8 
2025-05-09 21:18 UT   14 09 00.5   -10 44 58     1.243    2.233  164.5    7.0   117   11.8 
2025-05-10 00:00 UT   14 08 54.6   -10 44 08     1.244    2.232  164.3    7.0   117   11.8 
2025-05-11 00:00 UT   14 08 03.0   -10 36 45     1.245    2.231  163.1    7.5   117   11.8 
2025-05-12 00:00 UT   14 07 12.4   -10 29 30     1.247    2.230  161.9    8.1   117   11.9 
2025-05-13 00:00 UT   14 06 22.7   -10 22 21     1.249    2.228  160.7    8.6   116   11.9 
2025-05-14 00:00 UT   14 05 34.2   -10 15 19     1.252    2.227  159.6    9.1   116   11.9 
2025-05-15 00:00 UT   14 04 46.8   -10 08 25     1.254    2.225  158.4    9.6   116   11.9 
2025-05-16 00:00 UT   14 04 00.5   -10 01 40     1.257    2.224  157.2   10.1   116   12.0 
2025-05-17 00:00 UT   14 03 15.6   -09 55 03     1.260    2.223  156.0   10.7   115   12.0 
2025-05-18 00:00 UT   14 02 31.9   -09 48 35     1.264    2.221  154.9   11.2   115   12.0 
2025-05-19 00:00 UT   14 01 49.6   -09 42 17     1.267    2.220  153.7   11.7   115   12.0 
2025-05-20 00:00 UT   14 01 08.7   -09 36 08     1.271    2.218  152.5   12.1   115   12.1 
2025-05-21 00:00 UT   14 00 29.3   -09 30 09     1.275    2.217  151.4   12.6   115   12.1 
2025-05-22 00:00 UT   13 59 51.3   -09 24 21     1.279    2.216  150.3   13.1   115   12.1 
2025-05-23 00:00 UT   13 59 14.9   -09 18 44     1.284    2.214  149.1   13.6   115   12.1 
2025-05-24 00:00 UT   13 58 40.1   -09 13 18     1.288    2.213  148.0   14.0   115   12.1 
2025-05-25 00:00 UT   13 58 06.9   -09 08 03     1.293    2.211  146.9   14.5   114   12.2 
2025-05-26 00:00 UT   13 57 35.3   -09 02 59     1.298    2.210  145.8   14.9   114   12.2 
2025-05-27 00:00 UT   13 57 05.4   -08 58 08     1.303    2.209  144.7   15.4   114   12.2 
2025-05-28 00:00 UT   13 56 37.3   -08 53 28     1.308    2.207  143.6   15.8   114   12.2 
2025-05-29 00:00 UT   13 56 10.9   -08 49 01     1.314    2.206  142.5   16.2   114   12.3 
2025-05-30 00:00 UT   13 55 46.3   -08 44 46     1.320    2.205  141.4   16.7   114   12.3 
2025-05-31 00:00 UT   13 55 23.5   -08 40 44     1.326    2.203  140.3   17.1   114   12.3 
2025-06-01 00:00 UT   13 55 02.5   -08 36 55     1.332    2.202  139.3   17.5   114   12.3 
2025-06-02 00:00 UT   13 54 43.3   -08 33 18     1.338    2.200  138.2   17.9   114   12.3 
2025-06-03 00:00 UT   13 54 25.9   -08 29 54     1.344    2.199  137.2   18.3   114   12.4 
2025-06-04 00:00 UT   13 54 10.4   -08 26 42     1.351    2.198  136.1   18.7   114   12.4 
2025-06-05 00:00 UT   13 53 56.8   -08 23 44     1.357    2.196  135.1   19.0   114   12.4 
2025-06-06 00:00 UT   13 53 45.0   -08 20 58     1.364    2.195  134.1   19.4   114   12.4 
2025-06-07 00:00 UT   13 53 35.0   -08 18 25     1.371    2.193  133.1   19.7   113   12.5 
2025-06-08 00:00 UT   13 53 26.9   -08 16 05     1.378    2.192  132.1   20.1   113   12.5 


    Terminology:
            
    delta:  distance between minor planet and earth in AU
    radius: distance between minor planet and sun in AU
    magn:   magnitude (brightness) estimate    
    ra:     right ascension in hours (24h = 360deg)
    dec:    declination in degrees
    elong:  elongation in degrees (angle sun-earth-minor planet)    
    phase:  phase angle in degrees (angle sun-minor planet-earth)        
    AU:     Astronomical Unit (mean distance between earth and sun: 149597870.7 km
    

Orbital elements provided by the MPC (Minor Planet Center).
Calculations by a modified version of AAPlus, a C# implementation of the AA+ project by PJ Naughter from the algorithms presented in the book "Astronomical Algorithms" by Jean Meeus.
NGC2000 dso catalog and star labels from VizieR as provided by the Strasbourg astronomical Data Center.
Tycho2 catalog from the ESO archive.